Temperature
16 14 13 13 12 14 15 14 13 12 12 9 8 10 12 13 11 11 12 14 15 17 17 16 15 14 13 12 11 11 10 9 8 7 7 6 6 6 5 4 4 3 3 2
14 13 13 14 13 13 14 13 12 12 11 10 9 9 11 11 11 12 12 13 17 18 18 17 16 15 14 13 13 12 11 10 10 9 8 7 6 5 4 4 3 3 3 2
15 15 15 14 14 14 13 13 13 13 13 11 10 11 11 11 11 11 12 15 17 18 19 19 17 16 15 15 15 14 14 12 11 10 8 6 5 5 4 4 4 3 3 2
14 13 15 15 14 14 12 13 13 13 12 10 11 11 12 12 11 11 13 15 18 20 20 20 19 18 17 17 16 15 15 14 12 10 9 8 7 7 6 5 4 3 2 2
14 15 14 14 13 13 13 13 13 12 12 10 9 10 12 11 12 13 14 18 21 21 21 20 20 19 19 18 17 16 15 14 13 12 10 9 8 7 6 4 3 3 2 2
13 14 14 13 13 13 13 12 10 8 8 10 10 9 11 12 13 14 14 18 20 21 21 21 20 20 19 18 17 17 16 15 14 13 11 10 9 7 6 5 4 3 3 2
13 14 13 13 13 13 13 12 11 12 11 11 10 9 11 13 12 12 13 17 19 19 20 21 21 20 20 19 18 18 17 16 15 14 13 11 10 8 6 5 4 3 3 2
13 13 14 13 13 13 12 12 12 13 12 10 10 9 12 13 13 14 15 16 18 20 20 21 21 20 20 19 19 18 17 17 16 15 14 12 11 8 7 5 4 3 3 2
13 13 13 12 12 12 11 10 11 10 10 9 9 10 11 13 14 14 15 17 19 20 20 20 20 20 20 19 19 18 18 17 16 15 14 13 11 9 8 6 4 3 2 2
13 13 13 12 12 12 12 10 8 10 11 10 10 10 12 14 15 14 13 16 18 19 20 20 20 20 19 19 18 18 17 17 16 15 14 13 12 10 8 6 4 3 2 2
12 12 12 12 11 11 10 10 10 8 8 10 9 11 12 13 13 13 13 16 17 18 19 19 18 19 18 18 18 18 17 17 16 15 14 13 12 10 8 6 5 3 2 1
11 10 10 11 11 10 10 10 9 10 10 7 7 11 13 12 12 12 13 16 17 17 17 17 17 17 17 17 17 17 17 17 16 15 14 13 11 10 8 6 5 3 2 1
10 10 11 12 12 10 10 9 8 9 8 7 7 12 13 12 12 14 15 15 16 16 16 16 16 16 16 16 16 17 16 16 15 15 14 13 11 10 9 7 5 3 2 1
10 9 11 12 12 12 11 10 8 9 9 8 9 12 14 14 14 14 15 15 14 14 14 15 15 15 15 15 16 16 16 15 15 14 13 13 12 11 9 7 5 3 2 1
9 9 8 9 10 9 9 10 9 9 10 10 12 12 14 15 13 13 14 13 13 13 14 14 15 15 15 15 15 15 15 15 14 14 13 13 12 10 8 7 5 3 2 1
7 8 8 8 9 9 8 9 10 10 10 10 11 12 13 13 13 12 12 12 12 13 14 14 14 14 14 14 14 14 14 14 14 14 13 13 11 10 8 6 4 3 1 1
6 6 7 7 8 8 8 9 10 10 9 9 11 12 12 10 10 11 12 12 12 13 13 13 13 14 14 14 13 13 13 13 13 13 13 12 11 10 8 5 3 2 1 0
6 5 6 5 8 7 10 11 10 10 10 10 10 10 10 10 12 12 12 12 12 12 12 12 13 13 13 13 13 13 13 12 12 12 12 11 10 9 7 5 3 2 1 0
5 6 6 5 5 7 8 9 9 9 9 10 10 10 11 11 10 12 13 12 11 11 11 12 12 12 12 12 12 12 12 12 11 11 11 10 9 8 6 4 3 2 1 0
4 5 5 4 5 6 9 10 11 10 9 11 11 10 10 9 7 9 11 11 10 11 11 11 11 11 11 11 11 11 11 10 10 10 9 9 8 7 6 4 3 1 0 -0
5 4 4 4 4 6 8 9 10 9 10 11 11 11 10 8 8 10 10 10 10 10 10 10 10 10 10 10 10 9 9 9 9 8 8 8 7 6 5 3 1 0 -1 -1
6 5 3 3 4 6 8 8 9 10 11 11 10 10 10 9 9 9 9 9 9 9 9 9 9 9 9 9 8 8 8 8 8 8 8 7 6 5 4 2 0 -1 -2 -2
5 7 6 6 8 9 10 10 11 11 10 10 10 10 9 9 8 8 8 8 8 8 8 8 8 8 8 8 7 7 7 7 7 7 7 6 6 4 3 1 -1 -2 -2 -3
6 6 5 5 6 7 10 10 10 10 10 9 9 9 8 8 7 7 7 7 7 7 7 7 7 7 7 7 7 6 6 6 6 6 6 5 4 3 2 -0 -1 -2 -3 -3
7 6 5 6 7 8 8 9 9 9 9 8 8 8 7 7 7 6 6 6 6 6 6 6 5 5 5 5 5 5 5 5 5 5 5 4 3 2 1 -1 -2 -2 -2 -2
6 6 6 7 8 7 8 8 8 8 7 7 7 6 6 6 6 5 5 5 5 5 5 4 4 4 4 4 4 4 4 4 4 4 4 3 2 1 -0 -2 -3 -3 -4 -3
Wind_Speed
3 2 5 9 9 6 3 5 9 9 5 7 12 19 25 17 11 16 17 15 16 19 16 12 15 15 13 15 17 18 19 16 13 8 7 6 7 6 7 15 19 20 19 19
4 6 9 4 4 4 5 6 8 8 3 6 9 16 20 15 12 17 18 18 18 16 11 12 13 15 19 19 19 19 21 19 17 14 9 5 5 5 7 13 17 20 20 19
7 6 2 4 4 5 5 7 7 7 5 4 7 12 10 8 6 8 11 12 12 16 16 13 14 17 18 20 23 21 22 21 19 15 8 4 3 2 5 7 8 17 20 20
7 5 3 4 5 6 7 7 6 4 4 6 3 8 11 9 9 10 12 12 14 15 14 13 13 15 20 23 19 20 20 20 19 18 16 14 13 12 12 8 9 13 19 19
7 3 5 7 7 8 7 1 0 2 2 5 3 6 12 8 10 12 12 13 14 14 14 15 16 18 19 17 16 18 18 19 20 20 22 20 17 12 6 6 9 10 12 17
7 3 5 6 0 2 3 4 4 5 3 5 5 6 9 7 9 10 9 9 11 12 12 14 13 11 12 12 14 16 18 20 20 21 21 22 20 14 10 10 11 10 8 9
7 4 2 3 3 3 3 4 5 6 3 6 3 5 11 15 11 10 13 13 11 9 10 11 12 13 13 14 16 17 19 21 20 22 23 23 21 18 18 16 14 12 9 9
4 7 4 4 6 5 4 6 5 4 6 7 4 8 10 14 11 10 11 12 12 12 10 11 12 12 13 14 15 17 20 21 20 22 23 20 18 15 14 15 13 14 12 12
5 7 1 2 2 8 5 5 4 3 4 5 8 9 12 12 9 7 8 10 12 12 11 11 10 10 11 12 15 18 19 19 20 21 20 19 19 18 16 14 14 11 10 10
7 6 4 1 2 0 3 6 5 3 4 7 8 7 6 11 12 12 11 12 11 11 11 11 10 10 10 10 10 12 15 18 17 17 18 17 18 19 16 14 15 14 13 11
6 5 5 2 6 7 5 4 4 3 4 4 6 8 8 10 12 12 14 13 12 13 13 12 11 9 9 9 10 12 14 14 15 17 18 17 17 17 16 16 16 15 13 14
4 4 5 8 3 4 7 8 8 4 6 6 5 11 11 12 12 11 13 14 13 13 13 12 11 9 8 8 9 11 12 15 16 14 15 17 15 16 17 18 17 15 15 14
5 4 4 7 3 1 2 5 6 4 2 5 6 12 7 9 12 12 13 14 14 14 14 12 10 9 8 8 8 10 12 13 11 12 14 16 17 18 20 19 17 16 16 15
6 5 7 10 9 4 6 5 6 7 6 8 13 21 23 23 21 20 17 15 14 13 12 11 10 9 8 7 8 9 11 11 11 12 15 18 20 20 20 18 17 17 17 15
4 5 8 10 11 8 8 11 10 13 14 15 22 23 29 24 18 15 14 14 14 14 13 11 10 9 8 7 7 9 10 10 12 14 17 20 18 17 16 17 17 16 16 16
3 5 4 7 10 10 10 14 19 19 16 16 23 26 24 15 10 10 11 11 11 12 12 12 11 11 10 8 8 8 10 11 12 16 18 16 15 16 17 17 16 15 15 13
6 7 5 8 7 6 10 14 18 11 10 11 15 15 10 10 12 12 11 10 10 11 11 12 11 11 10 10 8 9 9 9 12 15 16 14 14 16 16 16 15 16 16 14
8 6 4 5 1 11 10 6 10 12 14 13 12 13 12 12 12 10 8 6 10 11 11 11 11 11 10 9 8 8 7 8 11 14 15 14 14 16 14 15 16 15 13 13
8 8 5 3 6 11 9 10 7 8 9 8 8 9 9 8 8 6 4 5 8 10 11 11 11 10 10 11 9 7 8 8 10 14 15 14 14 15 15 17 17 15 13 13
3 5 5 5 6 9 10 7 1 2 8 5 2 5 7 8 10 9 10 11 12 12 10 10 10 9 11 11 7 7 9 9 13 14 14 12 13 16 17 18 16 13 13 14
3 4 7 8 9 11 11 6 1 4 7 2 3 7 8 6 8 11 14 13 12 12 13 11 10 10 11 10 7 9 11 13 13 11 10 11 13 15 15 13 12 11 13 12
8 7 8 7 8 11 7 5 6 8 5 7 9 9 10 11 12 13 13 12 12 12 12 11 10 11 11 9 8 10 13 13 10 9 10 11 12 12 12 12 12 12 13 13
9 9 7 11 11 7 4 8 7 6 11 12 10 11 12 13 14 14 12 11 11 12 11 10 10 12 12 10 8 12 14 12 10 10 10 10 10 11 10 12 12 12 12 12
7 7 7 9 12 12 12 11 12 14 15 12 11 12 11 12 12 12 11 10 11 11 11 10 11 13 14 12 11 11 13 11 10 11 10 8 8 9 10 11 12 12 13 13
9 6 9 17 16 13 13 13 13 13 12 13 12 10 9 9 10 9 9 11 10 10 10 10 11 13 15 14 14 13 11 10 10 11 9 7 8 9 10 12 12 13 14 15
12 15 17 22 16 15 15 10 12 13 12 11 9 8 7 6 7 9 10 10 10 12 11 12 13 13 15 14 15 14 11 9 10 10 8 7 6 8 9 9 10 19 18 22
Wind_Direction
41 68 234 228 212 218 225 238 263 264 215 196 242 260 269 267 233 245 247 242 240 241 239 211 207 205 200 200 202 203 202 198 187 182 186 189 205 203 203 207 206 204 204 203
17 265 243 217 183 200 226 261 271 282 213 212 273 274 270 264 241 237 240 238 236 239 237 213 202 200 203 205 205 205 205 200 197 198 186 176 174 192 203 204 206 206 204 203
224 249 184 164 183 208 238 227 249 269 314 263 304 295 284 287 250 251 240 237 235 232 237 222 206 206 206 209 208 207 206 203 200 191 171 149 137 147 180 200 205 205 202 202
251 264 203 214 232 195 260 243 232 274 316 297 347 301 290 286 296 266 248 235 237 234 233 227 210 208 210 214 209 207 204 203 198 189 190 189 197 203 201 194 195 196 199 201
267 230 203 227 235 190 228 4 141 300 249 299 258 238 286 310 286 273 256 239 236 232 226 227 219 216 216 212 205 205 202 203 199 196 199 202 209 207 179 177 185 193 198 202
250 249 208 215 118 162 139 62 52 53 73 289 238 196 283 268 248 277 287 269 252 243 232 232 228 217 215 202 200 199 201 206 201 200 203 206 209 196 181 187 192 196 198 203
311 291 236 153 120 42 98 70 345 335 337 259 197 212 254 260 253 255 276 288 290 274 251 241 231 219 216 205 202 200 202 208 203 202 207 210 210 202 200 197 198 195 198 205
300 300 231 195 193 188 179 158 183 259 266 288 273 239 256 270 281 269 270 281 291 284 266 252 241 227 221 211 203 200 205 209 203 205 210 211 208 206 208 202 197 199 203 205
213 271 311 171 194 153 162 205 181 172 280 279 274 287 298 292 315 317 302 297 292 291 287 273 264 244 229 215 208 205 207 209 206 207 208 209 208 208 208 202 200 200 200 198
182 260 294 32 96 332 176 160 113 156 275 283 288 279 259 293 304 315 318 314 306 306 298 286 272 254 237 224 213 205 209 212 209 206 207 210 210 210 207 200 201 202 200 196
180 217 295 310 209 205 151 164 168 175 202 227 279 270 238 250 272 290 298 299 297 297 294 286 278 263 239 220 206 205 209 211 210 209 208 211 209 207 205 206 206 203 199 197
167 146 264 265 237 176 181 193 163 190 245 210 245 271 257 259 275 280 286 292 293 289 287 286 284 278 256 234 217 212 211 214 215 209 208 212 210 205 207 211 208 201 200 199
139 124 335 336 358 70 228 215 195 188 194 211 230 269 276 291 295 293 292 295 297 299 301 302 300 288 270 247 226 219 218 221 214 205 209 212 212 210 212 212 207 202 201 200
137 177 204 234 250 249 235 230 196 189 227 246 239 264 283 289 295 302 308 308 306 305 307 310 309 302 285 258 232 225 227 220 212 209 213 217 218 216 215 212 207 203 201 199
134 231 241 254 268 269 249 249 230 219 228 245 265 269 277 287 299 303 306 312 316 318 321 321 316 311 304 280 249 232 230 218 211 214 220 224 222 218 216 212 208 203 200 200
153 231 256 265 257 255 257 251 249 248 244 245 263 272 275 291 304 303 308 314 319 323 323 320 317 314 307 290 266 245 236 222 211 220 227 227 220 217 216 214 207 202 200 196
198 202 244 268 269 295 264 237 238 231 220 219 247 262 302 322 316 312 312 318 319 315 312 312 310 305 301 294 276 259 246 222 216 226 232 227 222 221 217 212 208 204 199 192
186 184 222 278 324 241 247 239 228 237 250 239 251 274 295 291 291 285 275 304 323 317 311 309 306 305 301 295 286 271 253 228 226 232 235 228 221 222 217 211 211 207 198 194
189 176 207 229 253 271 287 269 225 219 268 252 243 273 292 301 315 294 266 308 309 302 296 292 290 290 293 295 292 281 265 245 239 241 239 230 219 219 215 214 212 204 196 195
119 166 193 203 227 254 247 251 218 172 277 265 223 297 308 339 336 305 308 315 308 302 297 296 298 299 300 302 303 287 275 260 253 250 246 233 219 217 218 217 211 202 197 197
147 177 204 221 238 262 258 273 159 214 251 314 311 308 304 293 269 280 298 303 301 302 302 302 304 303 300 305 307 290 283 273 268 261 250 236 224 221 221 216 206 197 196 193
202 205 210 204 222 255 248 167 201 238 293 311 309 303 296 291 290 295 300 301 306 308 308 310 310 307 305 305 297 289 286 282 277 265 253 240 226 218 216 209 203 194 193 193
213 209 211 208 227 249 228 222 253 287 295 295 293 295 296 295 297 301 302 305 307 306 306 308 308 306 307 306 297 291 293 294 286 272 259 246 227 215 206 203 200 194 194 197
236 220 234 256 259 262 269 271 276 278 279 281 283 288 289 289 294 299 302 304 306 305 307 310 313 311 310 310 303 289 292 292 286 277 268 247 226 216 207 204 201 200 201 201
234 234 248 263 271 276 260 261 271 279 287 293 293 290 289 292 297 299 303 303 304 305 305 307 307 305 304 306 304 301 297 294 286 280 270 250 229 217 211 211 211 209 211 207
232 242 255 266 268 272 281 278 284 287 288 290 292 298 301 297 295 300 300 299 302 304 305 306 304 302 303 305 303 303 299 292 285 284 273 253 233 220 214 214 221 226 221 223
Height
1548 1552 1554 1552 1551 1550 1550 1552 1554 1548 1542 1546 1543 1532 1517 1510 1512 1507 1504 1504 1504 1504 1508 1512 1514 1516 1518 1520 1521 1523 1525 1526 1529 1530 1531 1532 1532 1534 1536 1536 1536 1535 1534 1533
1551 1552 1546 1545 1547 1549 1550 1552 1552 1545 1541 1543 1539 1527 1510 1501 1499 1495 1494 1493 1494 1496 1500 1503 1506 1508 1510 1511 1513 1515 1516 1518 1520 1521 1523 1525 1526 1527 1529 1529 1529 1529 1528 1527
1550 1545 1542 1544 1546 1548 1549 1551 1548 1545 1540 1541 1541 1523 1507 1495 1491 1488 1486 1485 1487 1489 1491 1495 1498 1500 1502 1503 1504 1506 1508 1510 1512 1514 1516 1517 1518 1518 1520 1520 1521 1522 1521 1520
1546 1542 1542 1543 1544 1546 1550 1543 1543 1542 1546 1548 1542 1538 1506 1497 1490 1483 1479 1479 1479 1482 1485 1488 1490 1492 1494 1496 1498 1500 1501 1503 1504 1505 1506 1506 1506 1506 1509 1513 1514 1514 1514 1513
1544 1540 1541 1543 1542 1542 1543 1540 1541 1543 1546 1550 1545 1545 1513 1500 1491 1478 1472 1472 1473 1477 1479 1482 1484 1486 1488 1490 1491 1493 1494 1494 1495 1496 1496 1497 1497 1499 1503 1505 1506 1506 1506 1506
1541 1538 1538 1538 1538 1539 1540 1542 1547 1552 1554 1554 1542 1548 1523 1501 1486 1477 1470 1469 1470 1472 1474 1476 1478 1480 1482 1483 1484 1485 1485 1485 1486 1486 1486 1487 1488 1490 1493 1495 1497 1498 1499 1498
1543 1538 1536 1537 1539 1540 1542 1549 1557 1552 1553 1548 1539 1541 1519 1486 1479 1477 1472 1468 1468 1469 1469 1471 1472 1473 1474 1476 1476 1477 1477 1477 1477 1477 1477 1478 1479 1481 1483 1486 1489 1490 1490 1490
1548 1546 1536 1536 1537 1541 1543 1547 1556 1555 1555 1547 1536 1534 1505 1479 1474 1473 1470 1468 1466 1465 1466 1466 1467 1468 1468 1469 1470 1470 1470 1470 1470 1469 1469 1470 1471 1472 1474 1477 1479 1481 1481 1482
1548 1545 1536 1535 1535 1538 1544 1547 1546 1554 1552 1554 1539 1524 1502 1477 1472 1470 1468 1466 1464 1464 1464 1463 1463 1463 1463 1463 1463 1463 1463 1463 1462 1462 1462 1462 1462 1463 1464 1467 1470 1471 1473 1474
1541 1544 1537 1536 1537 1537 1539 1544 1553 1552 1553 1551 1539 1527 1509 1485 1475 1470 1467 1465 1463 1462 1461 1460 1460 1458 1457 1457 1456 1456 1455 1455 1455 1455 1454 1453 1453 1454 1455 1457 1459 1461 1464 1465
1539 1543 1540 1538 1538 1537 1542 1544 1545 1551 1553 1552 1546 1522 1491 1483 1475 1472 1467 1464 1462 1460 1458 1456 1454 1452 1450 1449 1448 1448 1447 1447 1446 1446 1445 1445 1444 1445 1446 1447 1449 1451 1454 1455
1539 1545 1546 1538 1533 1533 1536 1538 1543 1547 1544 1551 1549 1515 1481 1476 1470 1469 1466 1462 1460 1457 1453 1450 1447 1444 1441 1440 1439 1440 1440 1439 1439 1438 1437 1436 1435 1435 1435 1436 1438 1441 1443 1445
1540 1544 1547 1539 1538 1537 1536 1536 1538 1538 1542 1547 1543 1505 1476 1472 1467 1465 1464 1460 1456 1452 1448 1444 1441 1438 1436 1434 1433 1433 1433 1432 1432 1430 1428 1427 1425 1424 1424 1425 1428 1430 1432 1434
1536 1542 1544 1541 1533 1530 1532 1532 1535 1536 1537 1532 1519 1494 1476 1470 1466 1462 1460 1456 1452 1448 1444 1440 1437 1434 1432 1429 1428 1427 1427 1426 1424 1422 1420 1417 1415 1414 1414 1415 1417 1419 1421 1423
1536 1540 1538 1533 1529 1530 1529 1527 1526 1526 1518 1514 1493 1486 1472 1465 1465 1462 1458 1454 1449 1444 1441 1438 1435 1433 1430 1427 1425 1423 1422 1420 1418 1414 1411 1408 1406 1405 1404 1404 1405 1408 1410 1413
1535 1538 1535 1531 1525 1525 1524 1518 1512 1507 1503 1499 1488 1479 1464 1465 1463 1459 1455 1451 1447 1444 1441 1438 1435 1431 1428 1425 1422 1420 1417 1414 1411 1407 1403 1400 1397 1394 1393 1393 1395 1398 1401 1404
1535 1537 1535 1528 1522 1521 1519 1503 1496 1493 1488 1487 1482 1469 1462 1463 1460 1457 1453 1450 1447 1444 1440 1437 1433 1429 1426 1422 1419 1415 1411 1408 1404 1399 1395 1392 1388 1385 1383 1384 1385 1387 1390 1394
1527 1532 1533 1532 1523 1522 1495 1484 1483 1482 1477 1473 1470 1466 1464 1462 1458 1454 1451 1449 1445 1442 1438 1434 1429 1425 1422 1418 1414 1410 1405 1401 1396 1392 1387 1384 1379 1376 1375 1374 1374 1377 1381 1384
1518 1524 1529 1533 1527 1508 1494 1481 1477 1478 1474 1465 1465 1463 1461 1458 1454 1450 1449 1447 1443 1439 1435 1430 1425 1420 1416 1412 1407 1403 1398 1393 1388 1383 1379 1375 1371 1367 1365 1364 1364 1367 1371 1375
1518 1519 1526 1529 1526 1508 1485 1472 1471 1473 1474 1462 1461 1461 1459 1456 1456 1447 1444 1441 1436 1432 1428 1424 1419 1414 1410 1405 1400 1395 1390 1385 1380 1375 1370 1366 1361 1358 1355 1354 1355 1357 1361 1365
1518 1522 1525 1522 1517 1494 1477 1471 1472 1478 1469 1461 1459 1458 1456 1454 1452 1445 1439 1435 1431 1426 1422 1417 1412 1407 1403 1398 1392 1387 1382 1377 1372 1366 1361 1357 1353 1349 1347 1346 1346 1348 1352 1356
1508 1513 1517 1514 1512 1493 1467 1470 1470 1465 1459 1458 1455 1453 1450 1446 1442 1437 1433 1428 1424 1419 1415 1410 1405 1400 1396 1391 1385 1379 1374 1369 1364 1358 1353 1349 1344 1341 1339 1338 1338 1340 1343 1347
1499 1494 1491 1490 1479 1467 1464 1463 1461 1460 1457 1454 1451 1448 1445 1440 1435 1431 1427 1422 1417 1413 1408 1403 1398 1392 1389 1385 1379 1372 1366 1361 1355 1350 1345 1341 1336 1333 1331 1330 1330 1331 1334 1338
1486 1483 1483 1479 1467 1462 1460 1458 1456 1455 1452 1448 1446 1443 1439 1434 1429 1425 1420 1416 1411 1407 1402 1397 1391 1385 1380 1376 1371 1365 1359 1353 1348 1342 1337 1333 1328 1325 1323 1322 1322 1323 1325 1328
1479 1477 1474 1467 1460 1456 1452 1452 1450 1447 1445 1442 1439 1436 1432 1428 1424 1420 1415 1410 1405 1400 1395 1390 1384 1378 1373 1368 1363 1358 1352 1346 1340 1335 1330 1325 1321 1318 1316 1315 1315 1315 1317 1321
1468 1469 1467 1455 1452 1451 1445 1446 1445 1441 1437 1435 1432 1429 1426 1423 1419 1415 1410 1405 1400 1394 1389 1383 1378 1372 1366 1361 1355 1350 1345 1340 1334 1328 1323 1319 1314 1311 1309 1308 1307 1308 1311 1315